Regional Weather Roundup
Issued by NWS Wakefield, VA

Home | Current Version | Previous Version | Text Only | Print | Product List | Glossary On
Versions: 1 2 3 4 5 6 7 8 9 10 11 12 13 14 15 16 17 18 19 20 21 22 23 24 25 26 27 28 29 30 31 32 33 34 35 36 37 38 39 40 41 42 43 44 45 46 47 48 49 50
000
ASUS41 KAKQ 010213
RWRAKQ

REGIONAL WEATHER ROUNDUP
NATIONAL WEATHER SERVICE WAKEFIELD VA
1000 PM EDT MON AUG 31 2015

Note: "fair" indicates few or no clouds below 12,000 feet with no
significant weather and/or obstructions to visibility. * = Denotes
station may not report precipitation (e.g., rain,snow,etc.),
thunder or fog.

VAZ042-051-052>054-056-010300-
NORTHERN VIRGINIA

CITY           SKY/WX    TMP DP  RH WIND       PRES   REMARKS
WASH NATIONAL  PTCLDY    78  67  68 S8        30.06R
DULLES         PTCLDY    75  66  73 S5        30.06R
FORT BELVOIR   CLEAR     71  67  89 SE1       30.06R
QUANTICO       CLEAR     79  70  74 SW15      30.07R
FREDERICKSBRG* CLEAR     78  71  79 S6        30.06R
STAFFORD*      CLEAR     73  68  84 S5        30.11R
WARRENTON      CLEAR     68  66  93 CALM      30.07R
CULPEPER*      CLEAR     69  67  92 CALM      30.08R
MANASSAS*      NOT AVBL
LEESBURG*      CLEAR     77  72  83 SW8       30.07R
WINCHESTER     CLEAR     73  63  68 CALM      30.07S
FRONT ROYAL*   FAIR      72  64  78 S3        30.07R
LURAY*         CLOUDY    73  61  64 S3        30.09R
$$

VAZ048-049-060>072-079>083-010300-
CENTRAL AND SOUTH CENTRAL VIRGINIA

CITY           SKY/WX    TMP DP  RH WIND       PRES   REMARKS
RICHMOND       PTCLDY    73  69  87 S5        30.09R
CHESTERFIELD*  FAIR      72  59  64 S5        30.11R
PETERSBURG*    CLOUDY    73  73 100 CALM      30.10R
HANOVER        CLEAR     73  69  87 CALM      30.10R
TAPPAHANNOCK*  CLEAR     72  67  84 CALM      30.09S
QUINTON*       FAIR      71  70  95 CALM      30.09R
CHARLOTTSVILLE CLEAR     72  65  78 S3        30.09R
GORDONSVILLE*  FAIR      69  67  93 CALM      30.08R
ORANGE*        CLEAR     70  66  88 CALM      30.10R
LOUISA*        CLEAR     73  70  88 S3        30.08R
BUMPASS*       FAIR      73  69  89 SE6       30.09R
FARMVILLE*     CLEAR     72  72  99 S3        30.09R
CREWE*         MOCLDY   N/A N/A N/A CALM      30.10R
FORT PICKETT*  CLOUDY    72  71  96 S8        30.10R
CHASE CITY*    FAIR      73  73 100 CALM      30.11R
CLARKSVILLE*   FAIR      70  70 100 CALM      30.10R
SOUTH HILL*    CLOUDY    71  71  98 CALM      30.16R
LAWRENCEVILLE* CLOUDY    72  72 100 CALM      30.10R
EMPORIA*       CLOUDY    70  70 100 CALM      30.10S FOG
$$

VAZ088>098-010300-
SOUTHEAST VIRGINIA

CITY           SKY/WX    TMP DP  RH WIND       PRES   REMARKS
NORFOLK        CLOUDY    74  69  85 S5        30.08S
VIRGINIA BEACH MOCLDY    75  69  81 CALM      30.08S
NORFOLK NAVAL  CLOUDY    75  69  81 S3        30.10R
WEST POINT*    CLEAR     74  70  88 CALM      30.10R
SALUDA*        FAIR      72  69  90 NW3       30.08R
NEWPORT NEWS   PTCLDY    75  69  81 S9        30.08S
LANGLEY AFB    MOCLDY    75  69  82 S6        30.07S
FORT EUSTIS    PTCLDY    74  74 100 S7        30.06S
WILLIAMSBURG*  CLEAR     73  72  94 CALM      30.09S
HR EXEC AP*      N/A     73  70  88 CALM      30.10S
FRANKLIN*      NOT AVBL
WAKEFIELD      PTCLDY    72  69  90 CALM      30.09R
$$

VAZ020-022-025-037-045-010300-
WEST CENTRAL AND SOUTHWEST VIRGINIA

CITY           SKY/WX    TMP DP  RH WIND       PRES   REMARKS
STAUNTON*      PTCLDY    69  64  84 CALM      30.13R
WAYNESBORO*    FAIR      72  65  77 CALM      30.13R
HOT SPRINGS VA CLOUDY    67  61  81 CALM      30.24S
LYNCHBURG      CLEAR     70  68  93 CALM      30.12R
DANVILLE       CLEAR     73  68  84 CALM      30.11R
SOUTH BOSTON*  FAIR      69  68  96 CALM      30.10R
MARTINSVILLE   CLEAR     70  70 100 CALM      30.15R
ROANOKE        MOCLDY    76  64  66 E3        30.14R
BLACKSBURG     CLEAR     67  64  89 CALM      30.20R
DUBLIN*        MOCLDY    70  65  83 CALM      30.19R
MARION*        CLOUDY    68  64  86 CALM      30.23R
HILLSVILLE*    CLEAR     70  63  80 S5        30.19R
RICHLANDS*     FAIR      70  33  26 CALM      30.21R
WISE*          PTCLDY    72  59  64 CALM      30.22R
ABINGDON*      CLEAR     70  63  78 CALM      30.17R
$$

MDZ021>025-VAZ099-100-010300-
SOUTHERN MARYLAND AND THE DELMARVA PENINSULA

CITY           SKY/WX    TMP DP  RH WIND       PRES   REMARKS
PATUXENT RIVER CLEAR     75  69  81 SW8       30.07R
BAY BRIDGE APT   N/A     77  72  83 S6        30.05S
LEONARDTOWN    NOT AVBL
DOVER          CLEAR     76  72  87 SW10      30.04R
GEORGETOWN     CLEAR     73  68  84 SW6       30.07
EASTON         NOT AVBL
CAMBRIDGE      CLEAR     77  70  78 CALM      30.06S
SALISBURY      CLEAR     71  67  87 SW5       30.07R
OCEAN CITY     CLEAR     75  68  78 W7        30.07R
WALLOPS ISLAND CLEAR     73  65  75 SW5       30.09R
ACCOMACK*      CLEAR     68  61  77 S5        30.08R
$$

NCZ012>017-030>032-010300-
NORTH CENTRAL AND EASTERN NORTH CAROLINA

CITY           SKY/WX    TMP DP  RH WIND       PRES   REMARKS
ROANOKE RAPIDS CLOUDY    70  70 100 CALM      30.09R FOG
RALEIGH        PTCLDY    70  69  97 CALM      30.09R
ELIZABETH CITY MOCLDY    73  72  96 CALM      30.09R
AHOSKIE*       MOCLDY    72  71  96 CALM      30.09R FOG
EDENTON*       MOCLDY    72  71  96 CALM      30.08R
CURRITUCK*     PTCLDY    73  71  93 CALM      30.10R
KILL DEVIL HLS PTCLDY    73  69  88 CALM      30.08R
MANTEO         PTCLDY    74  72  93 SE3       30.09R
CAPE HATTERAS  MOCLDY    79  74  84 S12       30.07S
TARBORO*       CLOUDY    74  73  94 CALM      30.09R
GOLDSBORO      CLOUDY    75  73  94 NE3       30.06R
WASHINGTON     MOCLDY    74  73  96 CALM      30.07R
GREENVILLE     MOCLDY    77  73  88 CALM      30.09R
NEW BERN       CLOUDY    77  74  90 SE3       30.07S
WILMINGTON     CLOUDY    75  74  96 CALM      30.05S
$$

VAZ048-010300-
ELSEWHERE

CITY           SKY/WX    TMP DP  RH WIND       PRES   REMARKS
HARRISBURG PA  PTCLDY    78  68  71 CALM      30.02S
BALTIMORE      PTCLDY    77  65  66 CALM      30.04R
ANNAPOLIS      CLEAR     78  70  76 S3        30.04S
ANDREWS AFB    CLEAR     74  67  77 S7        30.06R
PHILADELPHIA   CLEAR     81  67  62 SW14      30.03R
HENDERSON NC   MOCLDY    70  68  92 CALM      30.10R FOG
GREENSBORO     PTCLDY    74  69  85 S3        30.11R
ROCKY MOUNT    CLOUDY    75  73  93 N5        30.08S
$$

VAZ100-010300-
MARINE

STATION/POSITION TIME  TEMP    WIND        PRES    WAVE   SWELL
                       AIR SEA DIR/SP/G            HT/PER HT/PER
                 (UTC) (F)     (DEG/KT/KT) (MB)    (FT/S) (FT/S)
BRANDYWINE LGT   0100   78 76  230/ 16/ 18 1017.5R
CAPE MAY NJ      0100   78 80  230/ 11/ 14 1017.0R
LEWES DE         0100   77 75  220/  5/ 10 1017.4R
15NM E FENWICK I 0150   78 78  220/ 16/ 17 1017.8R
OCEAN-CITY-INLET 0100   77 78  260/  6/  7 1017.3R
WACHAPREAGUE VA  0136   74 80  250/  4/  5 1018.6R
GOOSES REEF MD   0200   79 79  220/ 14/ 17 1018.7R
COVE POINT MD    0100   78     210/ 11/ 13 1018.4R
SOLOMONS ISLAND  0100      80                N/A
BISHOPS HEAD MD  0100   78 80  200/ 13/ 16 1016.9R
PINEY POINT MD   0105          230/ 12/ 13   N/A
POTOMAC MD       0200   77 80  230/ 10/ 12 1017.3R   1/ 3
CAMBRIDGE MD     0100   77 80  180/  3/  6 1016.9R
LEWISETTA VA     0100   76 80  230/  9/ 12 1017.8R
RAPPAHANNOCK LGT 0100          210/ 10/ 11 1018.9R
STINGRAY PT      0100   77 80  200/ 10/ 12 1018.7R   1/ 3
YORK RVR RNG VA  0100   76     200/  7/  9 1017.9S
YORKTOWN VA      0100   75 80  200/  3/  5 1018.1S
JAMESTOWN VA     0200   74 80  170/  6/  6   N/A
DOMINION TERM VA 0100   76     170/  6/  7 1018.3S
KIPTOPEKE VA     0100      79  190/ 10/ 11   N/A
CHES BAY BRIDGE  0100   75 79  160/  7/  8 1018.1R
CAPE HENRY VA    0100   73     170/  4/  5   N/A
CHESAPEAKE LGHT  0100   75     190/  6/  7 1019.5R
WILLOUBY STN VA  0100   75     100/  2/  4 1019.4R
CAPE HENRY BUOY  0128      78                N/A     2/ 9
1ST LANDING BUOY 0200      79              1018.2S   1/ 5
CAPE CHARLES BUO 0126      78                N/A     2/ 8   2/ 8
OFFSHORE WE BUOY 0111      79                N/A     3/ 9   3/ 9
64NM E OF VA BCH 0150   76 78  360/  2/  2 1018.7R   3/ 8   3/ 8
DUCK PIER NC     0100   76 79  160/  4/  6 1017.6R
44100 DUCK FRF   0124      78                N/A     2/10
44056 DUCK FRF   0111      78                N/A     2/10   2/11
OREGON INLET NC  0100   75 80  140/  4/  6 1018.3R
HATTERAS NC      0100   80 80  160/ 11/ 16 1018.0R
DIAMOND SHLS NC  0150   81 84  170/ 16/ 17 1018.2R   4/ 8   2/ 8
CAPE LOOKOUT NC  0200   79     160/ 13/ 15 1017.5R
$$



USA.gov is the U.S. government's official web portal to all federal, state and local government web resources and services.